This is the latest recevied weather packets stored in our database for station/object N2QDK-2. If no packets are shown the sender has not sent any weather packets the latest 10 day(s).
| Time | Temp. | Humidity | Pressure | Rain* | Wind** | Luminosity | Snow |
|---|---|---|---|---|---|---|---|
| 1777486517 | 10° C | 93% | 1009 hPa | 0.76 mm | - | - | - |
| 1777485917 | 10° C | 93% | 1009.1 hPa | 0.51 mm | - | - | - |
| 1777485317 | 10° C | 92% | 1009 hPa | 0.51 mm | - | - | - |
| 1777484717 | 10.56° C | 91% | 1009.3 hPa | 0.25 mm | - | - | - |
| 1777484117 | 10.56° C | 89% | 1009.1 hPa | 0 mm | - | - | - |
| 1777483517 | 10.56° C | 89% | 1009.3 hPa | 0 mm | - | - | - |
| 1777482916 | 10.56° C | 89% | 1009.2 hPa | 0 mm | - | - | - |
| 1777482316 | 10.56° C | 89% | 1009.4 hPa | 0 mm | - | - | - |
| 1777481717 | 10.56° C | 88% | 1009.5 hPa | 0 mm | - | - | - |
| 1777481117 | 10.56° C | 87% | 1009.8 hPa | 0 mm | - | - | - |
| 1777480517 | 10° C | 87% | 1009.8 hPa | 0 mm | - | - | - |
| 1777479917 | 10° C | 88% | 1009.7 hPa | 0 mm | - | - | - |
| 1777479316 | 9.44° C | 87% | 1010.2 hPa | 0 mm | - | - | - |
| 1777478717 | 9.44° C | 86% | 1010.5 hPa | 0 mm | - | - | - |
| 1777478116 | 10° C | 86% | 1010.8 hPa | 0 mm | - | - | - |
| 1777477517 | 10° C | 86% | 1010.9 hPa | 0 mm | - | - | - |
| 1777476916 | 10.56° C | 83% | 1011 hPa | 0 mm | - | - | - |
| 1777476316 | 12.22° C | 80% | 1010.9 hPa | 0 mm | - | - | - |
| 1777475716 | 13.33° C | 80% | 1010.8 hPa | 0 mm | - | - | - |
| 1777475116 | 13.89° C | 82% | 1011 hPa | 0 mm | - | - | - |
| 1777474517 | 13.89° C | 82% | 1011.1 hPa | 0 mm | - | - | - |
| 1777473916 | 13.89° C | 82% | 1011.2 hPa | 0 mm | - | - | - |
| 1777473317 | 13.89° C | 83% | 1011.1 hPa | 0 mm | - | - | - |
| 1777472716 | 13.89° C | 82% | 1011 hPa | 0 mm | - | - | - |
| 1777472116 | 13.89° C | 84% | 1010.8 hPa | 0 mm | - | - | - |
* Rain latest hour (hover to see other rain measurements)
** Current wind speed in m/s (hover to see current wind gust speed)